User: anonymous   Login
Location: Summit Observatory
(39.5293°N, 75.7290°W)
Time: 23:13:47
(UTC-04:00)
Language:

Gurwin Techsat 1B - Orbit

View from above orbital plane
View from above orbital plane
View from above satellite
View from above satellite

Ground track
Ground track

The orbit data is extracted from the following two-line orbital elements,

1 25397U 98043D   16273.51297593  .00000002  00000-0  19485-4 0  9993
2 25397  98.5761 215.7904 0002240  60.9426 299.1977 14.23603623946707
Epoch (UTC): 29 September 2016 12:18:41
Eccentricity: 0.0002240
inclination: 98.5761°
perigee height: 811 km
apogee height: 815 km
right ascension of ascending node: 215.7904°
argument of perigee: 60.9426°
revolutions per day: 14.23603623
mean anomaly at epoch: 299.1977°
orbit number at epoch: 94670

The dashed part of the orbit path shows where the satellite is in the earth's shadow,  

DLR